紫金山第1彗星

62P/Tsuchinshan 1 (2017)

English version
Home page
Updated on April 7, 2018

---------------------------------------------------------------------

・ プロフィール

・ 写真集

・ 軌道要素

Epoch 2017 Nov. 23.0 TT = JDT 2458080.5
T 2017 Nov. 16.12002 TT                                 MPCW
q   1.3838063            (2000.0)            P               Q
n   0.15463662     Peri.   30.34986     -0.50170211     -0.84844637
a   3.4376460      Node    90.24322     +0.75590836     -0.52477568
e   0.5974553      Incl.    9.70786     +0.42059190     -0.06891481
P   6.37
From 1173 observations 2004 Sept. 14-2018 Feb. 24, mean residual 0".7.
     Nongravitational parameters A1 = +0.76, A2 = -0.0899.

・ 星図

・ 光度変化

        m1 =  9.5 + 5 logΔ + 30.0 log r  [   ,-78]  (              〜2017年 8月30日)
        m1 = -2.2 + 5 logΔ + 85   log r  [-78,  0]  (2017年 8月30日〜2017年11月16日)
        m1 =  5.5 + 5 logΔ + 30.0 log r  [  0,   ]  (2017年11月16日〜               )

---------------------------------------------------------------------

軌道要素はM.P.E.C. 2018-D91に掲載されたものです。
星図はステラナビゲータ Ver.8 (アストロアーツ) で作成したものです。
光度グラフはComet for Windowsで作成したものです。

---------------------------------------------------------------------

Copyright(C) Seiichi Yoshida (comet@aerith.net). All rights reserved.